Llagostera (Gironès)





Hora UTC 16:45
Temperatura 14.1 ºC
Humedad 87.0 %
Presión 1013.9 hPa
Pluja 0.0 mm
Velocidad viento 3.2 km/h
Dirección viento

Datos diarios 2024-04-16



Hora UTC (invierno +1h; verano +2h)
Temperatura (ºC) Humedad (%) Presión (hPa) Velocidad viento (km/h) Precipitación (mm)
Hora UTC Aire Humedad Presión Vel. Dir. Vel. Max Dir. Intent. máx 5 min.
00:05 7.3 90.0 1018.1 6.4 6.4 0.0
00:15 7.4 91.0 1018.1 1.6 9.7 0.0
00:25 7.2 91.0 1018.0 1.6 9.7 0.0
00:35 7.1 91.0 1017.8 0.0 9.7 0.0
00:45 7.1 92.0 1017.7 3.2 9.7 0.0
00:55 7.4 94.0 1017.6 4.8 9.7 0.0
01:05 7.4 94.0 1017.4 3.2 9.7 0.0
01:15 7.4 94.0 1017.4 0.0 9.7 0.0
01:25 7.3 94.0 1017.4 0.0 9.7 0.0
01:35 6.8 94.0 1017.3 0.0 9.7 0.0
01:45 6.4 94.0 1017.2 3.2 9.7 0.0
01:55 6.1 94.0 1017.0 4.8 9.7 0.0
02:05 6.7 95.0 1016.9 6.4 9.7 0.0
02:15 7.0 95.0 1016.8 1.6 9.7 0.0
02:25 6.8 95.0 1016.8 6.4 9.7 0.0
02:35 7.0 96.0 1016.7 0.0 9.7 0.0
02:45 7.3 96.0 1016.7 0.0 9.7 0.0
02:55 7.4 96.0 1016.7 0.0 9.7 0.0
03:05 7.6 96.0 1016.6 0.0 9.7 0.0
03:15 7.6 96.0 1016.6 0.0 9.7 0.0
03:25 7.3 96.0 1016.7 0.0 9.7 0.0
03:35 7.6 96.0 1016.5 0.0 9.7 0.0
03:45 7.7 96.0 1016.5 0.0 9.7 0.0
03:55 8.1 96.0 1016.3 6.4 9.7 0.0
04:05 8.3 96.0 1016.2 1.6 9.7 0.0
04:15 8.2 96.0 1016.1 0.0 9.7 0.0
04:25 8.2 96.0 1015.9 4.8 9.7 0.0
04:35 8.3 96.0 1015.8 0.0 9.7 0.0
04:45 8.5 96.0 1016.0 1.6 9.7 0.0
04:55 8.7 97.0 1016.0 0.0 9.7 0.0
05:05 8.8 97.0 1016.3 0.0 9.7 0.0
05:15 9.1 96.0 1016.2 0.0 9.7 0.0
05:25 9.2 96.0 1016.3 0.0 9.7 0.0
05:35 9.4 96.0 1016.4 0.0 9.7 0.0
05:45 9.7 96.0 1016.2 0.0 9.7 0.0
05:55 9.7 96.0 1016.1 0.0 9.7 0.0
06:05 9.9 96.0 1016.1 0.0 9.7 0.0
06:15 10.1 95.0 1016.1 0.0 9.7 0.0
06:25 10.4 95.0 1016.2 0.0 9.7 0.0
06:35 10.7 94.0 1016.1 0.0 9.7 0.0
06:45 10.8 92.0 1016.3 6.4 9.7 0.0
06:55 10.9 90.0 1016.1 1.6 9.7 0.0
07:05 10.9 89.0 1016.0 0.0 9.7 0.0
07:15 11.1 88.0 1016.0 1.6 9.7 0.0
07:25 11.3 88.0 1016.1 3.2 9.7 0.0
07:35 11.4 89.0 1016.1 0.0 9.7 0.0
07:45 11.6 89.0 1015.9 0.0 9.7 0.0
07:55 11.6 87.0 1016.0 0.0 9.7 0.0
08:05 11.7 86.0 1015.9 0.0 9.7 0.0
08:15 11.8 85.0 1016.1 0.0 9.7 0.0
08:25 11.9 86.0 1016.0 0.0 9.7 0.0
08:35 11.9 85.0 1016.0 4.8 9.7 0.0
08:45 12.0 86.0 1016.0 4.8 9.7 0.0
08:55 12.1 86.0 1015.9 6.4 9.7 0.0
09:05 12.2 86.0 1015.9 8.0 9.7 0.0
09:15 12.4 86.0 1015.9 9.7 11.3 0.0
09:25 12.8 86.0 1016.0 4.8 12.9 0.0
09:35 13.2 86.0 1016.0 1.6 12.9 0.0
09:45 13.4 84.0 1016.1 0.0 12.9 0.0
09:55 13.8 83.0 1016.1 0.0 12.9 0.0
10:05 14.3 82.0 1016.1 0.0 12.9 0.0
10:15 14.5 80.0 1016.0 3.2 12.9 0.0
10:25 14.7 80.0 1015.9 6.4 12.9 0.0
10:35 14.9 80.0 1015.9 0.0 12.9 0.0
10:45 15.5 81.0 1015.7 11.3 14.5 0.0
10:55 15.9 81.0 1015.7 3.2 14.5 0.0
11:05 16.2 79.0 1015.6 9.7 14.5 0.0
11:15 16.1 80.0 1015.5 1.6 14.5 0.0
11:25 16.1 81.0 1015.4 4.8 16.1 0.0
11:35 15.7 82.0 1015.3 4.8 16.1 0.0
11:45 15.6 81.0 1015.2 3.2 16.1 0.0
11:55 15.7 82.0 1015.2 3.2 16.1 0.0
12:05 15.4 81.0 1015.2 12.9 16.1 0.0
12:15 15.3 81.0 1015.0 12.9 22.5 0.0
12:25 15.1 81.0 1014.9 6.4 22.5 0.0
12:35 15.0 82.0 1014.8 8.0 22.5 0.0
12:45 15.2 82.0 1014.8 6.4 22.5 0.0
12:55 15.4 82.0 1014.8 4.8 22.5 0.0
13:05 15.1 82.0 1014.8 6.4 22.5 0.0
13:15 14.9 83.0 1014.8 17.7 22.5 0.0
13:25 14.6 84.0 1014.7 16.1 22.5 0.0
13:35 14.3 85.0 1014.6 16.1 22.5 0.0
13:45 14.1 85.0 1014.6 9.7 22.5 0.0
13:55 14.0 85.0 1014.4 4.8 22.5 0.0
14:05 14.2 85.0 1014.4 1.6 22.5 0.0
14:15 14.2 85.0 1014.3 1.6 22.5 0.0
14:25 14.2 85.0 1014.3 1.6 22.5 0.0
14:35 14.2 86.0 1014.4 4.8 22.5 0.0
14:45 14.2 85.0 1014.3 3.2 22.5 0.0
14:55 14.2 86.0 1014.3 4.8 22.5 0.0
15:05 14.2 86.0 1014.2 1.6 22.5 0.0
15:15 14.3 86.0 1014.1 4.8 22.5 0.0
15:25 14.2 86.0 1014.1 0.0 22.5 0.0
15:35 14.2 87.0 1014.0 0.0 22.5 0.0
15:45 14.2 86.0 1013.9 4.8 22.5 0.0
15:55 14.2 86.0 1013.9 0.0 22.5 0.0
16:05 14.2 86.0 1013.7 3.2 22.5 0.0
16:15 14.2 86.0 1013.7 9.7 22.5 0.0
16:25 14.1 86.0 1013.8 8.0 22.5 0.0
16:35 14.1 86.0 1013.9 3.2 22.5 0.0
16:45 14.1 87.0 1013.9 3.2 22.5 0.0
Máxima 16.2 97.0 1018.1 17.7 22.5 0.0
Mínima 6.1 79.0 1013.7
Total 0.0